Regional Weather Roundup
Issued by NWS

Home | Current Version | Previous Version | Graphics & Text | Print | Product List | Glossary On
Versions: 1 2 3 4 5 6 7 8 9 10 11 12 13 14 15 16 17 18 19 20 21 22 23 24 25 26 27 28 29 30 31 32 33 34 35 36 37 38 39 40 41 42 43 44 45 46 47 48 49 50
000
ASUS45 KABQ 221010
RWRNM
WEATHER ROUNDUP FOR NEW MEXICO
NATIONAL WEATHER SERVICE ALBUQUERQUE NM
400 AM MDT FRI AUG 22 2014

NOTE: "FAIR" MEANS FEW OR NO CLOUDS BELOW 12,000 FEET AGL WITH NO
       SIGNIFICANT WEATHER OR OBSTRUCTIONS TO VISION.

      THIS PRODUCT IS RELEASED AS TWO VERSIONS.  ONE VERSION NEAR
      THE TOP OF THE HOUR CONTAINING PRELIMINARY DATA FROM ALBUQUERQUE
      AND OTHER STATIONS.  A FINAL VERSION WITH ADDITIONAL DATA IS
      ISSUED ABOUT 10 MINUTES AFTER THE HOUR.

NMZ501-503-504-510>518-221100-
NORTHWEST PLATEAU/NORTHCENTRAL MOUNTAINS

CITY           SKY/WX    TMP DP  RH WIND       PRES   REMARKS
FARMINGTON     CLOUDY    59  54  83 N7        30.17F
LOS ALAMOS     PTCLDY    65  35  33 SW5       30.24S
SANTA FE       PTCLDY    61  39  44 SW7       30.18R
TAOS           MOCLDY    55  34  44 NW5       30.24R
ANGEL FIRE     FAIR      47  40  76 CALM      30.33S

$$
NMZ402-403-502-505>509-221100-
WESTCENTRAL MOUNTAINS/SOUTHWEST MOUNTAINS

CITY           SKY/WX    TMP DP  RH WIND       PRES   REMARKS
GALLUP         MOCLDY    56  54  93 CALM      30.24S
SILVER CITY    FAIR      68  50  52 W5        30.18S

$$
NMZ407-409-411-412-221100-
SOUTHERN DESERTS

CITY           SKY/WX    TMP DP  RH WIND       PRES   REMARKS
LORDSBURG      FAIR      70  54  56 W7        30.11R
DEMING         FAIR      69  60  73 S6        30.12R
LAS CRUCES     RAIN      65  62  89 SW8       30.15R
HOLLOMAN AFB   CLOUDY    71  62  75 SE25      30.12R
ALAMOGORDO     CLOUDY    70  59  68 S25       30.15R
T OR C         LGT RAIN  72  58  61 SW9       30.12R

$$
NMZ519>523-221100-
CENTRAL VALLEYS/CENTRAL HIGHLANDS

CITY           SKY/WX    TMP DP  RH WIND       PRES   REMARKS
ALBUQUERQUE    CLOUDY    71  47  42 CALM      30.15R
DOUBLE EAGLE   CLOUDY    65  44  46 N8        30.17S
MORIARTY ARPT  LGT RAIN  59  47  64 CALM      30.19S
CLINES CORNERS CLOUDY    63  43  48 SW10      30.22S
BELEN          FAIR      68  50  52 SW9       30.14R
SOCORRO        MOCLDY    72  50  46 N5        30.10S

$$
NMZ524>526-539-540-221100-
SOUTHCENTRAL MOUNTAINS

CITY           SKY/WX    TMP DP  RH WIND       PRES   REMARKS
RUIDOSO        CLOUDY    66  50  55 SW14G21   30.25S

$$
NMZ527>531-221100-
NORTHEAST HIGHLANDS/NORTHEAST PLAINS

CITY           SKY/WX    TMP DP  RH WIND       PRES   REMARKS
LAS VEGAS      MOCLDY    61  41  47 S7        30.21S
RATON          CLOUDY    61  42  49 N6        30.15S
CLAYTON        CLEAR     67  49  52 SW7       30.06F

$$
NMZ532>537-221100-
EASTCENTRAL PLAINS

CITY           SKY/WX    TMP DP  RH WIND       PRES   REMARKS
TUCUMCARI      PTCLDY    75  56  51 S7        30.02R
CANNON AFB     CLEAR     71  60  68 S13       30.08R
CLOVIS AIRPORT   N/A     72  59  64 S14       30.10S

$$
NMZ028-029-538-221100-
SOUTHEAST PLAINS

CITY           SKY/WX    TMP DP  RH WIND       PRES   REMARKS
ROSWELL        PTCLDY    75  60  59 S14       30.03R
ARTESIA        MOCLDY    77  57  50 SW18      30.04R
CARLSBAD       PTCLDY    75  58  55 SE3       30.01R
HOBBS          PTCLDY    73  63  68 S10       30.07R


$$


USA.gov is the U.S. government's official web portal to all federal, state and local government web resources and services.